Location: Newark
(37.9800°N, 91.3000°W)
Time: 01:40:47
(UTC+00:00)

Envisat - Pass Details

Date: 30 October 2019
Orbit: 764 x 766 km, 98.1° (Epoch: 12 November)

Event Time Altitude Azimuth Distance (km) Brightness Sun altitude
Rises 01:13:53 0° 202° (SSW) 3,217 6.5 -25.0°
Reaches altitude 10° 01:16:43 10° 218° (SW) 2,296 5.9 -25.6°
Maximum altitude 01:20:29 21° 266° (W) 1,672 5.5 -26.3°
Drops below altitude 10° 01:24:17 10° 315° (NW) 2,307 6.1 -27.0°
Sets 01:27:09 0° 331° (NNW) 3,238 6.7 -27.6°
